This demonstration page uses our WeatherBlox Daily Observations layout. Learn more.

Left ArrowRight Arrow

Hourly Observations for March 24, 2017

Temp ( °F °C ) Dew Point ( °F °C ) Humidity (%) Winds ( mph kmh ) Pressure ( in mb ) Visibility ( mi km ) Precip ( " mm )
12:52 am 00:52 Clear 67 19.4 48 8.9 51 51 SSE 18 30 29.86 1011 10 16 0.00 0.00
1:52 am 01:52 Clear 66 18.9 47 8.3 50 50 SSE 17 28 29.86 1011 10 16 0.00 0.00
2:52 am 02:52 Clear 65 18.3 47 8.3 52 52 SSE 16 26 29.84 1011 10 16 0.00 0.00
3:52 am 03:52 Clear 65 18.3 46 7.8 51 51 S 16 26 29.83 1010 10 16 0.00 0.00
4:52 am 04:52 Clear 59 15 46 7.8 62 62 S 8 13 29.89 1012 10 16 0.00 0.00
5:52 am 05:52 Clear 58 14.4 46 7.8 65 65 SSE 10 17 29.90 1012 10 16 0.00 0.00
6:52 am 06:52 Clear 63 17.2 45 7.2 52 52 SSE 14 22 29.87 1012 10 16 0.00 0.00
7:52 am 07:52 Sunny 66 18.9 48 8.9 52 52 SSE 18 30 29.86 1011 10 16 0.00 0.00
8:52 am 08:52 Sunny 67 19.4 48 8.9 51 51 S 18 30 29.88 1012 10 16 0.00 0.00
9:52 am 09:52 Sunny 67 19.4 47 8.3 49 49 S 22 35 29.90 1013 10 16 0.00 0.00
10:52 am 10:52 Sunny 69 20.6 49 9.4 49 49 S 25 41 29.91 1013 10 16 0.00 0.00
11:52 am 11:52 Mostly Cloudy with Light Rain 65 18.3 53 11.7 66 66 S 18 30 29.93 1013 9 14 0.00 0.03
12:52 pm 12:52 Cloudy 63 17.2 57 13.9 81 81 S 14 22 29.93 1014 10 16 0.03 0.76
1:34 pm 13:34 Cloudy with Nearby Thunderstorms 64 18 55 13 73 73 SSW 8 13 29.91 1013 10 16 0.00 0.00
1:52 pm 13:52 Cloudy with Nearby Thunderstorms 67 19.4 54 12.2 63 63 S 16 26 29.88 1012 10 16 0.00 0.03
2:52 pm 14:52 Cloudy with Light Rain 64 17.8 55 12.8 73 73 S 16 26 29.89 1012 10 16 0.00 0.03
3:26 pm 15:26 Cloudy with Rain 61 16 57 14 88 88 SSE 13 20 29.88 1012 3 4 0.00 0.00
3:33 pm 15:33 Cloudy with Light Rain 60 15.6 57 13.9 90 90 SSE 13 20 29.88 1012 5 8 0.06 1.52
3:52 pm 15:52 Cloudy with Light Rain 61 16.1 57 13.9 87 87 S 17 28 29.89 1012 4 6 0.07 1.78
4:52 pm 16:52 Cloudy with Rain 60 15.6 58 14.4 93 93 SE 6 9 29.89 1012 3 5 0.19 4.83
5:42 pm 17:42 Cloudy with Heavy Rain 59 15 57 14 94 94 SW 3 6 29.91 1013 2 3 0.00 0.00
5:52 pm 17:52 Cloudy with Rain 60 15.6 58 14.4 93 93 W 3 6 29.90 1012 2 3 0.20 5.08
6:52 pm 18:52 Cloudy with Heavy Rain 59 15 57 13.9 93 93 E 7 11 29.86 1011 3 4 0.31 7.87
7:12 pm 19:12 Cloudy with Light Rain 59 15 57 14 94 94 E 5 7 29.91 1013 3 5 0.00 0.00
7:23 pm 19:23 Cloudy with Heavy Rain 59 15 58 14.4 96 96 NNE 3 6 29.88 1012 3 4 0.12 3.05
7:31 pm 19:31 Cloudy with Heavy Rain 59 15 57 13.9 93 93 NE 5 7 29.88 1012 2 3 0.24 6.10
7:41 pm 19:41 Cloudy with Rain 59 15 58 14.4 96 96 NE 3 6 29.88 1012 2 3 0.34 8.64
7:52 pm 19:52 Cloudy with Rain 59 15 58 14.4 96 96 W 8 13 29.89 1012 3 4 0.39 9.91
7:57 pm 19:57 Cloudy with Nearby Thunderstorms 59 15 58 14.4 96 96 W 6 9 29.91 1013 3 4 0.01 0.25
8:00 pm 20:00 Cloudy with Nearby Thunderstorms 59 15 57 14 94 94 W 8 13 29.91 1013 3 5 0.00 0.00
8:05 pm 20:05 Cloudy with Thunderstorms 58 14.4 57 13.9 97 97 W 7 11 29.94 1014 3 5 0.05 1.27
8:26 pm 20:26 Cloudy with Rain 57 14 54 12 88 88 W 8 13 29.94 1014 5 8 0.00 0.00
8:36 pm 20:36 Cloudy with Nearby Thunderstorms 57 14 52 11 82 82 WSW 6 9 29.94 1014 4 6 0.00 0.00
8:52 pm 20:52 Cloudy with Heavy Rain 57 13.9 52 11.1 83 83 VRB 3 6 29.93 1013 3 5 0.23 5.84
9:52 pm 21:52 Cloudy with Light Rain 54 12.2 52 11.1 93 93 E 18 30 29.83 1010 10 16 0.18 4.57
10:52 pm 22:52 Cloudy with Light Rain 56 13.3 52 11.1 87 87 ESE 25 41 29.81 1009 10 16 0.00 0.03
11:43 pm 23:43 Cloudy 56 13.3 51 10.6 84 84 SSE 20 31 29.80 1009 10 16 0.00 0.03
11:52 pm 23:52 Mostly Cloudy 56 13.3 51 10.6 84 84 SE 16 26 29.78 1009 10 16 0.00 0.03

Powered by AerisWeather